Weather in Bunyrevo

Russia / Tula Oblast     54°34′15″N   37°09′03″E
temp.,
°C
wind,
m/s
gust,
m/s
humid.,
%
clouds,
%
prec.,
mm/h
press.,
hPa
HPBL,
m
6 march, sat
sat600:00−11wnw12870 0.0 101521
03:00−11w118724 0.0 101721
06:00−10nw339399 0.0 101650
09:00−11nnw369471 0.0 1018188
12:00−6nw468435 0.0 1018734
15:00−5wnw467964 0.1 10161048
18:00−8wnw348592 0.2 101671
21:00−11w348646 0.2 101650
7 march, sun
sun700:00−11wsw47921 0.0 1015140
03:00−10sw6148912 0.0 1012355
06:00−8sw8178690 0.0 1007694
09:00−6sw10178995 0.3 1003966
12:00−3sw111892100 0.9 9971207
15:00−1wsw121990100 1.8 9951471
18:00−6wnw51371100 2.1 996391
21:00−9wsw5148053 2.1 1000342
8 march, mon
mon800:00−8sw5118899 0.0 998297
03:00−6wsw8158799 0.1 997754
06:00−10w8158485 0.6 997635
09:00−8wnw6118989 0.6 1000717
12:00−8wnw7118543 0.0 1003934
15:00−7wnw7108472 0.1 10051086
18:00−8wnw5109292 0.1 1007411
21:00−10nw479291 0.3 1010142
9 march, tue
tue900:00−13nw349751 0.0 101241
03:00−15nnw339765 0.0 101436
06:00−15nnw239697 0.0 101556
09:00−14nnw359498 0.0 1017266
12:00−11nnw358785 0.0 1018596
15:00−10nw458293 0.1 1018870
18:00−13nw4688100 0.1 1019113
21:00−17nnw349061 0.1 102261
10 march, wed
wed1000:00−19nw23930 0.0 102320
03:00−21n11983 0.0 102420
06:00−20ese1297100 0.0 102425
09:00−17e2394100 0.1 1024170
12:00−15ene4487100 0.1 1024340
15:00−14ene358280 0.1 1024394
18:00−18ene34890 0.0 102541
21:00−21e33910 0.0 102721